Regional Weather Roundup
Issued by NWS State College, PA

Home | Current Version | Previous Version | Graphics & Text | Print | Product List | Glossary Off
Versions: 1 2 3 4 5 6 7 8 9 10 11 12 13 14 15 16 17 18 19 20 21 22 23 24 25 26 27 28 29 30 31 32 33 34 35 36 37 38 39 40 41 42 43 44 45 46 47 48 49 50

000
ASUS41 KCTP 161710
RWRCTP

REGIONAL WEATHER ROUNDUP
NATIONAL WEATHER SERVICE STATE COLLEGE PA
100 PM EDT TUE SEP 16 2014

Note: "fair" indicates few or no clouds below 12,000 feet with no
significant weather and/or obstructions to visibility.

* = STATION THAT DOES NOT REPORT PRECIPITATION /E.G. RAIN...SNOW...ETC/
    THUNDER OR FOG.

PAZ002>004-007>009-013>016-020>023-029>032-161800-
WESTERN PENNSYLVANIA

CITY           SKY/WX    TMP DP  RH WIND       PRES   REMARKS
ERIE           SUNNY     63  44  50 VRB6      30.12S
MEADVILLE      PTSUNNY   62  48  60 NE7       30.11S
FRANKLIN*      PTSUNNY   61  48  63 W5        30.11F
NEW CASTLE     PTSUNNY   61  53  74 CALM      30.12F
BEAVER COUNTY  CLOUDY    59  52  77 CALM      30.12F
BUTLER*        CLOUDY    61  50  67 W3        30.13F
PITTSBURGH INT PTSUNNY   61  50  67 NW7       30.11F
PITTSBURGH     CLOUDY    61  49  64 VRB5      30.11S
INDIANA*       CLOUDY    61  50  67 VRB6      30.14S
LATROBE        PTSUNNY   61  52  72 NE6       30.12F
WASHINGTON CO* PTSUNNY   63  48  59 N6        30.12F
$$

PAZ004>006-010>012-017>019-024>028-033>037-041-042-045-046-049>053-161800-
CENTRAL PENNSYLVANIA

CITY           SKY/WX    TMP DP  RH WIND       PRES   REMARKS
BRADFORD       PTSUNNY   57  46  66 NW9       30.09F
DUBOIS         CLOUDY    58  48  69 NW8       30.09S
CLEARFIELD     CLOUDY    62  48  60 N6        30.08F
JOHNSTOWN      PTSUNNY   59  47  64 NW9       30.10S
ALTOONA        CLOUDY    61  51  70 NW8       30.09S
STATE COLLEGE  PTSUNNY   63  50  63 N5        30.07F
WILLIAMSPORT   CLOUDY    67  48  50 N6        30.02F
SELINSGROVE    MOSUNNY   66  50  56 CALM      30.04F
FT INDIANTOWN  CLOUDY    66  55  67 VRB7      30.04S
CAPITAL CITY   PTSUNNY   69  53  56 N10       30.03F
HARRISBURG     MOSUNNY   72  53  51 N12       30.02
YORK           PTSUNNY   70  53  54 N12       30.03S
$$

PAZ038>040-043-044-047-048-054-055-060>062-067>071-161800-
EASTERN PENNSYLVANIA

CITY           SKY/WX    TMP DP  RH WIND       PRES   REMARKS
SCRANTON       CLOUDY    65  49  56 NW13      30.02F
MOUNT POCONO   PTSUNNY   62  49  62 VRB6      30.03F
ALLENTOWN      CLOUDY    69  52  54 NW8       30.00F
QUAKERTOWN*    PTSUNNY   68  55  64 MISG      30.01F
READING        PTSUNNY   70  53  54 NW8       30.00F
LANCASTER      MOSUNNY   69  50  50 NW9G21    30.01F
COATESVILLE    PTSUNNY   68  55  64 NW7       30.01F
POTTSTOWN      PTSUNNY   69  54  58 VRB5      30.01F
BLUE BELL      PTSUNNY   70  55  60 NW6       29.99S
DOYLESTOWN     MOSUNNY   70  54  56 NW9G17    29.99F
WILLOW GROVE   NOT AVBL
NORTH PHILA    PTSUNNY   73  54  51 N7        30.00F
PHILADELPHIA   MOSUNNY   73  54  51 NW10G20   29.99F
$$



USA.gov is the U.S. government's official web portal to all federal, state and local government web resources and services.